Regional Weather Roundup
Issued by NWS

Home | Current Version | Previous Version | Graphics & Text | Print | Product List | Glossary Off
Versions: 1 2 3 4 5 6 7 8 9 10 11 12 13 14 15 16 17 18 19 20 21 22 23 24 25 26 27 28 29 30 31 32 33 34 35 36 37 38 39 40 41 42 43 44 45 46 47 48 49 50

625
ASUS43 KDMX 251706
RWRIA

WEATHER ROUNDUP FOR IOWA
NATIONAL WEATHER SERVICE DES MOINES IA
1200 PM CDT FRI MAY 25 2018

NOTE: "FAIR" INDICATES FEW OR NO CLOUDS BELOW 12,000 FEET WITH NO
SIGNIFICANT WEATHER AND/OR OBSTRUCTIONS TO VISIBILITY.

* - THESE STATIONS ARE NOT NWS STATIONS...THUS NOT UNDER NWS
QUALITY CONTROL.  THEY ALSO DO NOT REPORT WEATHER SUCH
AS PRECIPITATION OR FOG.

IAZ001>003-012>014-020>022-031>034-043>046-251800-
   NORTHWEST IOWA

CITY           SKY/WX    TMP DP  RH WIND       PRES   REMARKS
CARROLL *      SUNNY     84  66  54 SW10      29.84S HX  86
CHEROKEE *     SUNNY     84  68  58 CALM      29.82F HX  87
DENISON *      SUNNY     82  68  61 VRB6G12   29.85F HX  85
LE MARS *      SUNNY     86  63  45 VRB5      29.82S HX  87
ORANGE CITY *  SUNNY     84  61  45 W3        29.83F HX  84
SHELDON *      SUNNY     86  59  39 NW6       29.81F HX  85
SIOUX CITY     SUNNY     85  67  54 S5        29.82F HX  87
SPENCER        SUNNY     85  65  51 VRB3      29.82F HX  86
STORM LAKE *   SUNNY     84  63  48 VRB7G14   29.84F HX  85
$$

IAZ055>058-069>071-079>083-090>094-251800-
   SOUTHWEST IOWA

CITY           SKY/WX    TMP DP  RH WIND       PRES   REMARKS
ATLANTIC *     MOSUNNY   81  66  61 S8        29.85F HX  83
AUDUBON *      SUNNY     82  70  65 S9        29.86F HX  86
CLARINDA *     CLOUDY    81  64  57 SW14      29.89F HX  82
COUNCIL BLFS * SUNNY     82  68  61 SW9       29.85F HX  85
CRESTON *      MOSUNNY   81  63  54 SW13G20   29.89S HX  82
HARLAN  *      SUNNY     82  66  57 SW8       29.88F HX  85
LAMONI         CLOUDY    77  68  73 S12       29.89F
RED OAK *      MOSUNNY   82  64  54 SW9G17    29.86F HX  84
SHENANDOAH *   MOSUNNY   82  63  51 S12G17    29.87F HX  83
$$

IAZ047>049-059>061-072>074-084-251800-
   CENTRAL IOWA

CITY           SKY/WX    TMP DP  RH WIND       PRES   REMARKS
AMES           SUNNY     82  68  62 S6        29.85F HX  85
ANKENY *       PTSUNNY   79  68  69 S9        29.86F HX  81
BOONE *        SUNNY     82  66  57 S9        29.84F HX  85
CHARITON *     PTSUNNY   79  68  69 S12       29.88S HX  81
DES MOINES     PTSUNNY   80  67  64 S10       29.85F HX  82
GRINNELL*      PTSUNNY   80  67  64 S14       29.88F HX  82
KNOXVILLE *    CLOUDY    81  68  65 SW8G18    29.86F HX  83
MARSHALLTOWN   MOSUNNY   82  69  64 S10G20    29.85S HX  85
NEWTON *       PTSUNNY   81  66  61 S9        29.87S HX  83
PELLA *        CLOUDY    80  67  65 SW7       29.88F HX  82
PERRY *        FAIR      84  64  51 SW13      29.84F HX  85
$$

IAZ004>006-015-016-023>025-035-036-251800-
   NORTH CENTRAL IOWA

CITY           SKY/WX    TMP DP  RH WIND       PRES   REMARKS
ALGONA *       SUNNY     82  70  65 W10       29.83S HX  86
CLARION *      MOSUNNY   82  66  57 S10G18    29.84S HX  85
ESTHERVILLE    SUNNY     80  65  59 SW6       29.81F HX  82
FORT DODGE *   SUNNY     84  68  58 SW9       29.84F HX  87
MASON CITY     CLOUDY    83  68  60 SW9       29.84F HX  86
FOREST CITY *  FAIR      81  68  65 SW6G16    29.84S HX  83
WEBSTER CITY * SUNNY     84  66  54 S13G29    29.82F HX  86
IOWA FALLS *   FAIR      83  67  58 SW14      29.86F HX  85
$$

IAZ007>011-017>019-026>030-037>042-050>054-066-251800-
   NORTHEAST IOWA

CITY           SKY/WX    TMP DP  RH WIND       PRES   REMARKS
CEDAR RAPIDS   FAIR      79  67  66 VRB5      29.88S HX  81
CHARLES CITY * FAIR      84  64  51 SW12G17   29.84F HX  86
CLINTON *        N/A     83  67  58 W14       29.88F HX  85
DUBUQUE        FAIR      79  67  66 SW9       29.89F HX  81
MONTICELLO *   FAIR      81  66  61 S10       29.87F HX  83
OELWEIN *      FAIR      82  63  51 SW13G20   29.86F HX  83
WATERLOO       FAIR      81  66  60 S12       29.84S HX  83
$$

IAZ064-065-067-068-078-251800-
   EAST CENTRAL IOWA

CITY           SKY/WX    TMP DP  RH WIND       PRES   REMARKS
DAVENPORT      FAIR      82  65  56 SW10      29.90F HX  84
IOWA CITY      FAIR      81  65  58 S5        29.89F HX  83
MT. PLEASANT * CLOUDY    81  61  50 SW8       29.90S HX  81
MUSCATINE *    FAIR      79  68  69 S9        29.89F HX  81
QUAD CITIES    FAIR      86  68  54 W14       29.87F HX  89
$$

IAZ062-063-075>077-085>089-095>099-251800-
   SOUTHEAST IOWA

CITY           SKY/WX    TMP DP  RH WIND       PRES   REMARKS
BURLINGTON     CLOUDY    78  70  76 SW7       29.89F HX  80
FAIRFIELD *    CLOUDY    79  64  61 SW8       29.89F HX  81
FORT MADISON * CLOUDY    81  70  69 S3        29.90F HX  84
KEOKUK *       PTSUNNY   84  70  61 S9        29.89F HX  88
OSKALOOSA *    FAIR      77  66  69 SW10      29.89S
CENTERVILLE *  FAIR      77  72  83 S7        29.92S
OTTUMWA        CLOUDY    76  67  73 S10       29.89F
WASHINGTON *   CLOUDY    81  66  61 SW13      29.90F HX  83
$$

ABBREVIATIONS USED IN REMARKS
   TC - TEMPERATURES IN CELSIUS
  WCI - WIND CHILL INDEX
   HX - HEAT INDEX
  VSB - VISIBILITY
$$





USA.gov is the U.S. government's official web portal to all federal, state and local government web resources and services.